Pullman, WA

1:52 PM PST on February 21, 2017 (GMT -0800)
Pullman-Moscow Regional

Weather History for KPUW - April, 2013

Change the Weather History Date:

Thursday, April 11, 2013

  Actual Average Record
Temperature  
Mean Temperature 42 °F 45 °F  
Max Temperature 50 °F 55 °F 77 °F (1985)
Min Temperature 34 °F 35 °F 22 °F (1997)
Degree Days  
Heating Degree Days 23 20  
Month to date heating degree days 198 230  
Since 1 July heating degree days 5354 5689  
Cooling Degree Days 0 0  
Month to date cooling degree days 0 0  
Year to date cooling degree days 0 0  
Moisture  
Dew Point 31 °F    
Average Humidity 61    
Maximum Humidity 76    
Minimum Humidity 46    
Precipitation  
Precipitation 0.00 in 0.05 in 0.51 in (1974)
Month to date precipitation 1.11 0.66  
Year to date precipitation 4.42 6.05  
Sea Level Pressure  
Sea Level Pressure 30.14 in    
Wind  
Wind Speed 10 mph (WSW)    
Max Wind Speed 22 mph    
Max Gust Speed 26 mph    
Visibility 10 miles    
Events      
T = Trace of Precipitation, MM = Missing Value Source: NWS Daily Summary

Daily Weather History Graph

Daily Weather History Graph

Search for Another Location

Airport or City:

Trip Planner

Search our weather history database for the weather conditions in past years. The results will help you decide how hot, cold, wet, or windy it might be!

Date:

Astronomy

Apr. 11, 2013 Rise Set
Actual Time 6:07 AM PDT 7:31 PM PDT
Civil Twilight 5:36 AM PDT 8:03 PM PDT
Nautical Twilight 4:58 AM PDT 8:41 PM PDT
Astronomical Twilight 4:17 AM PDT 9:22 PM PDT
Moon 6:36 AM PDT (4/11) 9:17 PM PDT (4/11)
Length of Visible Light 14h 26m
Length of Day
13h 23m
New Moon, 2% of the Moon is Illuminated
Apr 11
New Moon
Apr 18
First Quarter
Apr 25
Full
May 2
Last Quarter
May 9
New

Hourly Weather History & Observations

Time (PDT) Temp. Windchill Dew Point Humidity Pressure Visibility Wind Dir Wind Speed Gust Speed Precip Events Conditions
12:53 AM 42.1 °F 34.9 °F 33.1 °F 70% 30.11 in 10.0 mi WSW 13.8 mph 24.2 mph N/A   Mostly Cloudy
1:53 AM 39.9 °F 32.5 °F 32.0 °F 73% 30.11 in 10.0 mi West 12.7 mph - N/A   Clear
2:53 AM 39.0 °F 32.3 °F 32.0 °F 76% 30.12 in 10.0 mi West 10.4 mph 17.3 mph N/A   Clear
3:53 AM 37.0 °F 31.0 °F 30.9 °F 79% 30.14 in 10.0 mi SW 8.1 mph 17.3 mph N/A   Clear
4:53 AM 37.0 °F 30.4 °F 30.9 °F 79% 30.14 in 10.0 mi SW 9.2 mph - N/A   Clear
5:53 AM 37.0 °F 27.7 °F 30.0 °F 76% 30.13 in 10.0 mi WSW 16.1 mph - N/A   Clear
6:53 AM 37.9 °F 30.9 °F 30.0 °F 73% 30.16 in 10.0 mi West 10.4 mph - N/A   Clear
7:53 AM 39.9 °F 32.9 °F 30.9 °F 70% 30.17 in 10.0 mi WSW 11.5 mph - N/A   Clear
8:53 AM 43.0 °F 35.1 °F 32.0 °F 65% 30.17 in 10.0 mi WSW 17.3 mph - N/A   Clear
10:53 AM 45.0 °F 37.6 °F 34.0 °F 65% 30.19 in 10.0 mi West 17.3 mph 24.2 mph N/A   Clear
11:53 AM 44.1 °F 37.1 °F 32.0 °F 63% 30.18 in 10.0 mi WSW 15.0 mph 23.0 mph N/A   Clear
12:53 PM 46.0 °F 39.6 °F 33.1 °F 61% 30.17 in 10.0 mi West 15.0 mph - N/A   Clear
1:53 PM 46.9 °F - 32.0 °F 56% 30.16 in 10.0 mi West 16.1 mph 23.0 mph N/A   Mostly Cloudy
2:53 PM 50.0 °F - 33.1 °F 52% 30.15 in 10.0 mi WSW 16.1 mph 23.0 mph N/A   Mostly Cloudy
3:53 PM 50.0 °F - 30.9 °F 48% 30.13 in 10.0 mi WSW 16.1 mph 23.0 mph N/A   Overcast
4:53 PM 48.0 °F - 28.9 °F 48% 30.14 in 10.0 mi West 10.4 mph 19.6 mph N/A   Mostly Cloudy
5:53 PM 48.0 °F - 30.0 °F 50% 30.13 in 10.0 mi WSW 9.2 mph - N/A   Overcast
6:53 PM 46.0 °F 41.9 °F 30.0 °F 54% 30.13 in 10.0 mi WSW 8.1 mph - N/A   Clear
7:53 PM 43.0 °F 39.5 °F 30.0 °F 60% 30.13 in 10.0 mi WSW 5.8 mph - N/A   Clear
8:53 PM 39.9 °F 36.7 °F 30.0 °F 68% 30.14 in 10.0 mi SW 4.6 mph - N/A   Clear
9:53 PM 37.9 °F - 30.0 °F 73% 30.15 in 10.0 mi Calm Calm - N/A   Clear
10:53 PM 37.0 °F - 28.9 °F 73% 30.14 in 10.0 mi Calm Calm - N/A   Clear
11:53 PM 35.1 °F - 28.9 °F 78% 30.14 in 10.0 mi Calm Calm - N/A   Clear